TimeEST,TemperatureF,Dew PointF,Humidity,Sea Level PressureIn,VisibilityMPH,Wind Direction,Wind SpeedMPH,Gust SpeedMPH,PrecipitationIn,Events,Conditions,WindDirDegrees,DateUTC
12:54 AM,28.0,25.0,88,30.06,10.0,NW,5.8,-,N/A,,Mostly Cloudy,320,2011-11-29 05:54:00
1:54 AM,30.0,27.0,88,30.04,10.0,Calm,Calm,-,N/A,,Overcast,0,2011-11-29 06:54:00
2:54 AM,30.0,27.0,88,30.08,10.0,West,3.5,-,N/A,,Overcast,280,2011-11-29 07:54:00
3:54 AM,30.0,27.0,88,30.10,10.0,West,3.5,-,N/A,,Overcast,280,2011-11-29 08:54:00
4:54 AM,30.9,28.0,89,30.04,10.0,NNW,10.4,-,N/A,,Overcast,330,2011-11-29 09:54:00
5:24 AM,32.0,28.4,87,30.03,6.0,NW,4.6,-,N/A,,Overcast,320,2011-11-29 10:24:00
5:27 AM,32.0,28.4,87,30.03,6.0,NW,3.5,-,0.00,Snow,Light Snow,320,2011-11-29 10:27:00
5:40 AM,32.0,28.4,87,30.03,8.0,NW,4.6,-,0.00,,Overcast,320,2011-11-29 10:40:00
5:47 AM,32.0,28.4,87,30.03,5.0,NNW,4.6,-,0.00,,Overcast,330,2011-11-29 10:47:00
5:54 AM,32.0,30.0,92,30.06,6.0,Calm,Calm,-,0.00,,Overcast,0,2011-11-29 10:54:00
6:03 AM,32.0,30.2,93,30.03,10.0,NNW,4.6,-,N/A,,Overcast,330,2011-11-29 11:03:00
6:54 AM,32.0,30.0,92,30.06,10.0,NNW,5.8,-,N/A,,Overcast,340,2011-11-29 11:54:00
7:54 AM,35.1,30.9,85,30.09,10.0,North,5.8,-,N/A,,Overcast,350,2011-11-29 12:54:00
8:54 AM,36.0,30.9,82,30.07,10.0,North,12.7,-,N/A,,Overcast,10,2011-11-29 13:54:00
9:54 AM,37.0,30.9,79,30.09,10.0,NNE,13.8,-,N/A,,Overcast,30,2011-11-29 14:54:00
10:54 AM,37.0,30.0,76,30.07,10.0,NNE,18.4,25.3,N/A,,Overcast,30,2011-11-29 15:54:00
11:54 AM,37.0,30.0,76,30.05,10.0,NNE,13.8,-,N/A,,Overcast,30,2011-11-29 16:54:00
12:54 PM,37.0,30.0,76,30.01,10.0,NNE,17.3,-,N/A,,Overcast,20,2011-11-29 17:54:00
1:54 PM,37.0,28.9,73,29.99,10.0,NNE,23.0,28.8,N/A,,Overcast,20,2011-11-29 18:54:00
2:54 PM,36.0,28.0,73,29.97,10.0,NNE,18.4,28.8,N/A,,Overcast,20,2011-11-29 19:54:00
3:54 PM,36.0,28.0,73,29.99,10.0,North,20.7,27.6,N/A,,Overcast,10,2011-11-29 20:54:00
4:54 PM,35.1,28.0,76,29.93,10.0,North,18.4,27.6,N/A,,Overcast,10,2011-11-29 21:54:00
5:54 PM,35.1,27.0,72,29.91,10.0,North,20.7,32.2,N/A,,Overcast,10,2011-11-29 22:54:00
6:54 PM,34.0,27.0,75,29.92,10.0,North,20.7,31.1,N/A,,Overcast,10,2011-11-29 23:54:00
7:54 PM,34.0,26.1,73,29.93,10.0,North,18.4,25.3,N/A,,Overcast,360,2011-11-30 00:54:00
8:54 PM,33.1,25.0,72,29.89,10.0,North,21.9,29.9,N/A,,Overcast,360,2011-11-30 01:54:00
9:54 PM,32.0,24.1,73,29.87,10.0,North,17.3,24.2,N/A,,Overcast,360,2011-11-30 02:54:00
10:54 PM,32.0,24.1,73,29.87,10.0,North,12.7,-,N/A,,Overcast,360,2011-11-30 03:54:00
11:54 PM,32.0,24.1,73,29.84,10.0,North,15.0,-,N/A,,Overcast,350,2011-11-30 04:54:00